Login

morry985
2 activity; - Last training unit 10/05/2016
10/05/2016 Show to everybody che fiachessa 41.12 88 01:26:11 28.63 Km\h
08/05/2016 Show to everybody Conca d'oro 2016 46.73 1390 02:40:59 17.42 Km\h
07/05/2016 Show to everybody Giro pre conca 21.96 118 01:12:16 18.23 Km\h
06/05/2016 Show to everybody Giro serale 28.33 139 01:28:52 19.13 Km\h
05/05/2016 Show to everybody Giro del giovedì così così 40.13 70 01:12:46 33.09 Km\h
03/05/2016 Show to everybody Ocio ocio che arriva la tempesta 46.54 90 01:23:34 33.41 Km\h
30/04/2016 Show to everybody Across the wall 116.04 985 04:27:31 26.03 Km\h
28/04/2016 Show to everybody Giro del giovedì 54.58 127 01:37:14 33.68 Km\h
26/04/2016 Show to everybody Io tu e il vintù 40.19 72 01:17:56 30.94 Km\h
25/04/2016 Show to everybody Giretto a oi 36.11 79 01:32:47 23.35 Km\h
24/04/2016 Show to everybody Gf mtb città di Brescia 2016 40.51 981 02:10:47 18.59 Km\h
23/04/2016 Show to everybody Giro no stress pre gara 20.2 140 01:10:33 17.18 Km\h
21/04/2016 Show to everybody Giro del giovedì e raggio rotto 40.42 79 01:18:15 30.99 Km\h
19/04/2016 Show to everybody Giro a capottoni 30.75 129 01:34:31 19.52 Km\h
17/04/2016 Show to everybody Garda marathon 2016 57.54 1896 03:55:46 14.64 Km\h
15/04/2016 Show to everybody Descanso 20.24 44 00:42:45 28.41 Km\h
14/04/2016 Show to everybody Giro del giovedì 47.02 101 01:27:31 32.24 Km\h
12/04/2016 Show to everybody Col gruppone 50.8 112 01:21:53 37.22 Km\h
11/04/2016 Show to everybody Giro serale 21.43 34 00:44:16 29.05 Km\h
10/04/2016 Show to everybody Prova GF città di Brescia più varie ed eventuali 71.02 1923 05:34:23 12.74 Km\h
07/04/2016 Show to everybody Controvento 40.22 69 01:15:13 32.09 Km\h
05/04/2016 Show to everybody Giro serale 44.32 92 01:28:36 30.01 Km\h
04/04/2016 Show to everybody Giro scioglimento 20.31 30 00:41:46 29.18 Km\h
03/04/2016 Show to everybody Granfondo 3valli 2016 43.18 1204 02:14:59 19.19 Km\h
02/04/2016 Show to everybody Giro pre 3valli con Jacobs 34.96 78 01:18:16 26.8 Km\h
31/03/2016 Show to everybody Giro col gruppone 51.77 113 01:31:58 33.78 Km\h
30/03/2016 Show to everybody Medio regolare e qualche allungo di forza 40 65 01:14:45 32.11 Km\h
28/03/2016 Show to everybody Maddalena - serle - cariadeghe - coste - Val fredda 54.5 935 04:12:30 12.95 Km\h
27/03/2016 Show to everybody Giretto con Pasquale e amici 40.02 64 01:15:33 31.78 Km\h
26/03/2016 Show to everybody Ma fantecolo, cos'è? 33.02 759 02:06:56 15.61 Km\h
06/02/2016 Show to everybody Giusto un giro 46.54 1718 03:23:35 13.72 Km\h Canyon GrandCanyon CF 8.8 SL
31/01/2016 Show to everybody Maddalena + muratello 40.65 1433 03:16:30 12.41 Km\h Canyon GrandCanyon CF 8.8 SL
24/01/2016 Show to everybody explo in zone sconoscioute 48.79 1036 03:08:29 15.53 Km\h Canyon GrandCanyon CF 8.8 SL
23/01/2016 Show to everybody Il treno espresso delle 14 50.3 148 01:40:36 30 Km\h Giant TCR composite 3
17/01/2016 Show to everybody Giro del Garda 142.3 674 04:33:27 31.22 Km\h Giant TCR composite 3
06/01/2016 Show to everybody Polaveno e Fanciacorta freschina freschettta 58.02 766 02:37:47 22.06 Km\h Giant TCR composite 3
31/12/2015 Show to everybody Campiani Stella quarone sella dell'oca 31.49 836 02:00:10 15.72 Km\h
27/12/2015 Show to everybody Giro mattutino 97.47 830 03:50:02 25.42 Km\h
26/12/2015 Show to everybody Giro mattutino 41.84 120 02:02:40 20.47 Km\h
20/12/2015 Show to everybody Classic tour sul Garda 102.17 1210 04:01:42 25.36 Km\h
19/12/2015 Show to everybody Ricognizione Befana bike 39.67 120 01:57:08 20.32 Km\h
13/12/2015 Show to everybody Giro mattutino 35.47 730 02:06:34 16.82 Km\h
07/12/2015 Show to everybody Tremalzo bike - parziale 37.49 1396 02:52:09 13.06 Km\h
06/12/2015 Show to everybody Iseo doppia faccia 63.09 136 02:08:14 29.52 Km\h
05/12/2015 Show to everybody Ritorno alle origini 41.98 110 01:58:56 21.18 Km\h
29/11/2015 Show to everybody Giro del Garda... Wow 142.66 637 04:22:11 32.65 Km\h
22/11/2015 Show to everybody Giro mattutino 41.56 51 01:38:50 25.23 Km\h
21/11/2015 Show to everybody Giro del sabato pomeriggio nella basa 84.7 185 02:48:17 30.2 Km\h
15/11/2015 Show to everybody Il Guglielmo che non ti aspetti 32 1533 03:06:39 10.29 Km\h
14/11/2015 Show to everybody Giro pomeridiano 25.93 802 02:03:06 12.64 Km\h
08/11/2015 Show to everybody M. Orfano e M. Alto 30.96 752 02:21:46 13.1 Km\h
07/11/2015 Show to everybody Test bike nuova 26.03 781 01:52:21 13.9 Km\h
01/11/2015 Show to everybody Giro mattutino 99.85 1057 03:54:55 25.5 Km\h
31/10/2015 Show to everybody Giro pomeridiano sciallo del sabato 81.05 175 02:35:30 31.27 Km\h
25/10/2015 Show to everybody Il Pizzoccolo è sempre il Pizzoccolo 45.38 1829 04:55:44 9.21 Km\h
24/10/2015 Show to everybody Ognuno ha i marmottoni che si merita 19.25 451 01:27:38 13.18 Km\h
18/10/2015 Show to everybody Giro mattutino 71.02 141 02:25:39 29.25 Km\h
17/10/2015 Show to everybody Giro pomeridiano 19.98 486 01:46:07 11.3 Km\h
11/10/2015 Show to everybody Giro mattutino 33.56 78 02:01:38 16.56 Km\h
10/10/2015 Show to everybody Parco Oglio nord classic 2015 - end of the season!! 45.44 196 02:12:57 20.51 Km\h
06/10/2015 Show to everybody Ricognizione Parco Oglio nord classic 2015 Tutto pronto!! vi aspettiamo sabato, partenza ore 14:30 24.15 120 01:25:56 16.86 Km\h
03/10/2015 Show to everybody Urcis6h di barco, o di birra?? Sempre la migliore 39.37 145 01:48:29 21.78 Km\h
01/10/2015 Show to everybody Pre 6h di barco 17.89 50 00:56:23 19.03 Km\h
29/09/2015 Show to everybody Giro serale 27.6 88 01:25:27 19.38 Km\h
27/09/2015 Show to everybody Gimondi bike 2015 40.13 876 02:14:52 17.85 Km\h
26/09/2015 Show to everybody Giro sfaticato pre gara col Mafe 30.44 140 01:42:58 17.74 Km\h
17/09/2015 Show to everybody 6h di barco ricognizione 36.16 193 01:48:02 20.08 Km\h
16/09/2015 Show to everybody Evening Ride 21.19 110 01:23:16 15.27 Km\h
13/09/2015 Show to everybody Val di Fassa bike 2015 62.77 3261 06:06:55 10.26 Km\h
10/09/2015 Show to everybody Test percorso gara di casa 21.24 118 01:08:12 18.69 Km\h
08/09/2015 Show to everybody Evening Ride 41.06 106 01:18:29 31.39 Km\h
06/09/2015 Show to everybody Soprazocco a scrocco 40.47 1027 02:52:07 14.11 Km\h
05/09/2015 Show to everybody Madda mi mancavi❤ 24.21 866 02:08:09 11.33 Km\h
01/09/2015 Show to everybody Evening Ride 46.59 151 01:27:58 31.78 Km\h
28/08/2015 Show to everybody Morning Ride 47.16 179 02:28:32 19.05 Km\h
26/08/2015 Show to everybody Double Stelvio Double 112.04 4372 07:32:17 14.86 Km\h
24/08/2015 Show to everybody Afternoon Ride 41.17 121 01:26:08 28.68 Km\h
21/08/2015 Show to everybody Morning Ride 100.83 935 03:53:31 25.91 Km\h
17/08/2015 Show to everybody 08/17/2015 Senigallia - Tavullia pellegrinaggio #46 103.79 874 03:52:31 26.78 Km\h
14/08/2015 Show to everybody 08/14/2015 Senigallia, Monte Conero 124.82 1431 05:09:24 24.21 Km\h
12/08/2015 Show to everybody 08/12/2015 Senigallia, Marche, Italy 131.92 1995 04:59:35 26.42 Km\h
10/08/2015 Show to everybody 08/10/2015 Senigallia, Marche, Italy 89.28 1052 03:23:26 26.33 Km\h
02/08/2015 Show to everybody Salita ai laghi di Cornisello, spettacolo!! 38.53 1531 03:23:44 11.35 Km\h
31/07/2015 Show to everybody Guglielmo by night 23.97 1299 02:10:05 11.06 Km\h
28/07/2015 Show to everybody 07/28/2015 Quinzano D'Oglio, Lombardy, Italy 55.46 184 02:00:48 27.55 Km\h
26/07/2015 Show to everybody Test Gimondi bike 37.95 995 02:42:01 14.05 Km\h
24/07/2015 Show to everybody 07/24/2015 Brescia, Lombardy, Italy 27.98 866 02:23:46 11.68 Km\h
09/03/2013 Show to everybody Allenamento n. 3 32.17 1094 03:29:54 9.2 Km\h
27/01/2013 Show to everybody Allenamento n. 2 48.23 116 01:43:35 27.94 Km\h
19/01/2013 Show to everybody Allenamento n. 1 14.36 51 00:35:12 24.47 Km\h
Training units 0
Kilometers 0 Km
Vertical gain 0 mt
Hours of riding 00:00:00
Average speed 0 Km/h
Points 20
Live Tracking »

Giant TCR composite 3 08:51:50 250.62 Km
Canyon GrandCanyon CF 8.8 SL 09:48:34 135.98 Km
Ragley BluePig 0 Km

 
If you stop following this users you will not be able to compare your trainings with his

Now you follow this users and you can compare your trainings


MTB-Forum.it | 2012-2019 Training Camp v.1.6 rev 05